AirNav   Everest Fuels
 
 1316 users online  

0M8 Byerley Airport
Lake Providence, Louisiana, USA

GOING TO LAKE PROVIDENCE?


FAA INFORMATION EFFECTIVE 16 JULY 2020

Location

FAA Identifier: 0M8
Lat/Long: 32-49-33.1650N 091-11-15.5940W
32-49.552750N 091-11.259900W
32.8258792,-91.1876650
(estimated)
Elevation: 106 ft. / 32.3 m (surveyed)
Variation: 03E (1985)
From city: 2 miles N of LAKE PROVIDENCE, LA
Time zone: UTC -5 (UTC -6 during Standard Time)
Zip code: 71254

Airport Operations

Airport use: Open to the public
Activation date: 10/1951
Control tower: no
ARTCC: MEMPHIS CENTER
FSS: DE RIDDER FLIGHT SERVICE STATION
NOTAMs facility: DRI (NOTAM-D service available)
Attendance: UNATNDD
Wind indicator: yes
Segmented circle: no
Beacon: white-green (lighted land airport)
ROTG BCN OTS INDEFLY. Operates sunset to sunrise.

Airport Communications

CTAF: 122.9

Nearby radio navigation aids

NDB name  Hdg/Dist  Freq  Var  ID
BASTROP080/35.432903EBQP -... --.- .--.
TALLULAH345/35.834402ETKH - -.- ....
METCALF197/37.435901WMTQ -- - --.-

Airport Services

Airframe service: NONE
Powerplant service: NONE
Bottled oxygen: NONE
Bulk oxygen: NONE

Runway Information

Runway 17/35

Dimensions: 3196 x 75 ft. / 974 x 23 m
Surface: asphalt, in fair condition
Weight bearing capacity: 
Single wheel: 4.0
Runway edge markings: RY MARKINGS ARE EXTREMELY FADED.
NO HOLD SHORT LINE EAST SIDE OF RY 35.
RUNWAY 17  RUNWAY 35
Latitude: 32-49.815367N32-49.290417N
Longitude: 091-11.288517W091-11.232867W
Elevation: 103.0 ft.103.0 ft.
Traffic pattern: leftleft
Runway heading: 172 magnetic, 175 true352 magnetic, 355 true
Displaced threshold: 175 ft.
DSPLCD THLD NOT LIGHTED.
530 ft.
DSPLCD THLD NOT LIGHTED.
Markings: NSTD, in poor conditionnonprecision, in poor condition
Runway end identifier lights: no
Touchdown point: yes, no lightsyes, no lights
Obstructions: 15 ft. road, 310 ft. from runway, 7:1 slope to clear
APCH RATIO 25:1 FM DSPLCD THLD.
106 ft. trees, 710 ft. from runway, 200 ft. right of centerline, 4:1 slope to clear
APCH RATIO 11:1 FM DSPLCD THLD.

Airport Ownership and Management from official FAA records

Ownership: Publicly-owned
Owner: EAST CARROLL PARISH
400 1ST STREET
LAKE PROVIDENCE, LA 71254
Phone 318-559-2256
Manager: BARRY BOYETTE
623 SCHNEIDER LANE
LAKE PROVIDENCE, LA 71254
Phone (318) 282-9263

Airport Operational Statistics

Aircraft based on the field: 2
Single engine airplanes: 2
    
Aircraft operations: avg 134/week *
71% local general aviation
29% transient general aviation
* for 12-month period ending 10 October 2018

Additional Remarks

WEST APRON POOR CONDITION; GRAVEL& POTHOLES.
DAY VFR ONLY.
FOR CD CTC MEMPHIS ARTCC AT 901-368-8453.

Instrument Procedures

There are no published instrument procedures at 0M8.

Some nearby airports with instrument procedures:

KTVR - Vicksburg Tallulah Regional Airport (30 nm S)
M32 - Lake Village Municipal Airport (32 nm N)
KBQP - Morehouse Memorial Airport (35 nm W)
M79 - John H Hooks Jr Memorial Airport (36 nm SW)
87I - Yazoo County Airport (37 nm E)
 
Loc | Ops | Rwys | IFR | FBO | Links
Com | Nav | Svcs | Stats | Notes
Area around 0M8 (Byerley Airport)
 
Road maps at: MapQuest Bing Google
 
Aerial photo
WARNING: Photo may not be current or correct
Aerial photo of 0M8 (Byerley Airport)
Do you have a better or more recent aerial photo of Byerley Airport that you would like to share? If so, please send us your photo.

 
Sectional chart

 
Airport distance calculator
Flying to Byerley Airport? Find the distance to fly.

From to 0M8

Sunrise and sunset
Times for 07-Aug-2020
 Local
(UTC-5)
 Zulu
(UTC)
Morning civil twilight05:5810:58
Sunrise06:2411:24
Sunset19:5600:56
Evening civil twilight20:2301:23

Current date and time
Zulu (UTC)  07-Aug-2020 21:22:50
Local (UTC-5)  07-Aug-2020 16:22:50
 
METAR
KTVR 
30nm S 
072053Z AUTO 02006KT 10SM CLR 34/18 A3007 RMK AO2 SLP188 T03390183 56007
KBQP 
35nm W 
072055Z AUTO 36004KT 10SM CLR 32/20 A3008 RMK AO2 T03240200 TSNO
KVKS 
38nm S 
072055Z AUTO 33007KT 10SM CLR 32/21 A3005 RMK A01
KGLH 
42nm N 
072053Z 04006KT 10SM CLR 33/22 A3007 RMK AO2 SLP188 T03280217 58007
KMLU 
47nm SW 
072053Z 02008KT 10SM CLR 33/20 A3008 RMK AO2 SLP183 T03280200 57008
TAF
KGLH 
42nm N 
071731Z 0718/0818 03003KT P6SM FEW120 SCT250
KMLU 
47nm SW 
071756Z 0718/0818 VRB05KT P6SM SCT120 BKN250 FM080100 00000KT P6SM FEW150 SCT250 FM081500 VRB03KT P6SM FEW250
NOTAMs
Click for the latest NOTAMs
NOTAMs are issued by the DoD/FAA and will open in a separate window not controlled by AirNav.

 

 
 

Would you like to see your business listed on this page?

 If your business provides an interesting product or service to pilots, flight crews, aircraft, or users of the Byerley Airport, you should consider listing it here.  To start the listing process, click on the button below
 
Add a business
 

Other Pages about Byerley Airport

Update a link
 
Copyright © AirNav, LLC. All rights reserved. Privacy Policy  Contact